Location: N�rnberg
(49.4489°N, 11.0797°E)
Time: 03:46:13
(UTC+02:00)

ISS - Pass Details

Date: 08 January 2018
Orbit: 401 x 409 km, 51.6° (Epoch: 20 August)

Event Time Altitude Azimuth Distance (km) Brightness Sun altitude
Exits shadow 05:14:37 21° 72° (ENE) 1,009 -1.2 -27.6°
Drops below altitude 10° 05:15:55 10° 79° (ENE) 1,512 0.0 -27.4°
Enters shadow 06:11:27 -70° 279° (W) 12,417 3.7 -18.4°
Maximum altitude 06:49:26 88° 7° (N) 429 -3.8 -12.5°
